This is the latest recevied weather packets stored in our database for station/object OE3CJB-13. If no packets are shown the sender has not sent any weather packets the latest 10 day(s).
| Time | Temp. | Humidity | Pressure | Rain* | Wind** | Luminosity | Snow |
|---|---|---|---|---|---|---|---|
| 1788386448 | 17.22° C | 59% | 1192.8 hPa | 0 mm | - | - | - |
| 1788385565 | 17.22° C | 58% | 1192 hPa | 0 mm | - | - | - |
| 1788384675 | 17.78° C | 56% | 1192.7 hPa | 0 mm | - | - | - |
| 1788383759 | 17.78° C | 55% | 1193.4 hPa | 0 mm | - | - | - |
| 1788382867 | 17.78° C | 54% | 1192.7 hPa | 0 mm | - | - | - |
| 1788381933 | 18.33° C | 50% | 1192.5 hPa | 0 mm | - | - | - |
| 1788381021 | 18.89° C | 48% | 1192.4 hPa | 0 mm | - | - | - |
| 1788380158 | 19.44° C | 45% | 1192.4 hPa | 0 mm | - | - | - |
| 1788379264 | 19.44° C | 43% | 1192.4 hPa | 0 mm | - | - | - |
| 1788378334 | 20.56° C | 40% | 1192.4 hPa | 0 mm | - | - | - |
| 1788377470 | 21.11° C | 38% | 1192.4 hPa | 0 mm | - | - | - |
| 1788376558 | 21.67° C | 32% | 1193 hPa | 0 mm | - | - | - |
| 1788375647 | 22.22° C | 30% | 1192.1 hPa | 0 mm | - | - | - |
| 1788374733 | 22.78° C | 29% | 1192 hPa | 0 mm | - | - | - |
| 1788373822 | 23.33° C | 27% | 1191.9 hPa | 0 mm | - | - | - |
| 1788372958 | 23.89° C | 25% | 1191.7 hPa | 0 mm | - | - | - |
| 1788372048 | 24.44° C | 24% | 1191.7 hPa | 0 mm | - | - | - |
| 1788371134 | 24.44° C | 22% | 1191.5 hPa | 0 mm | - | - | - |
| 1788370221 | 25° C | 21% | 1190 hPa | 0 mm | - | - | - |
| 1788369358 | 25.56° C | 19% | 1189.9 hPa | 0 mm | - | - | - |
| 1788368448 | 26.11° C | 17% | 1187.5 hPa | 0 mm | - | - | - |
| 1788367565 | 26.11° C | 17% | 1187.6 hPa | 0 mm | - | - | - |
| 1788366622 | 26.67° C | 15% | 1185.3 hPa | 0 mm | - | - | - |
| 1788365758 | 26.67° C | 14% | 1183.1 hPa | 0 mm | - | - | - |
| 1788364848 | 27.78° C | 15% | 1183.8 hPa | 0 mm | - | - | - |
* Rain latest hour (hover to see other rain measurements)
** Current wind speed in m/s (hover to see current wind gust speed)